Content
SEND FEEDBACK

Daily
Averages
Monthly
Summary
United States of America

LINCOLN ROCK, ALASKA


Home > North America > United States > Alaska
Elevation: 3 feet     Latitude: 56 03N     Longitude: 132 46W

WEATHER
 
SELECT A DAY
Number of Records: 160,884;   Date Range: 4/7/98 - 7/26/14
 
SHARE

PRINT THIS DATA

[ ← Previous Day ]
WEATHER ALMANAC - JANUARY 31, 2013
[ Next Day → ]
[ °C ]   °F
Weather ElementAverageHighLow
Temperature47.5 °F66 °F (2:53 pm)28.9 °F (6:53 am)
Dewpoint24.3 °F30 °F (9:53 am)16 °F (12:53 pm)
Humidity48.1 %82 % (1:53 am)15 % (1:53 pm)
Barometer30.21 in30.37 in (11:53 pm)30.12 in (3:53 pm)
Wind Speed9 mph23 mph (8:53 pm)
Wind Gust29.9 mph (8:53 pm)
Weather ElementAverage
Visibility10 mi
Wind DirectionESE (121.7 °)

Weather ElementTotal
Precipitation---
Heating Degree Days17.6 (Base 65)
Averaged from 23 records on January 31, 2013
WEATHER CONDITIONS BREAKOUT
WIND DIRECTION BREAKOUT
WEATHER BY HOUR - JANUARY 31, 2013
[ °C ]   °F
Local TimeTemperatureDewpointHumidityBarometerVisibilityWind DirectionWind SpeedGust SpeedPrecipitationEventsConditions
1:53 AM32.0 °F27.0 °F82 %30.16 in10.0 miCalmClear
2:53 AM33.1 °F25.0 °F72 %30.17 in10.0 miCalmClear
3:53 AM33.1 °F25.0 °F72 %30.17 in10.0 miCalmClear
4:53 AM32.0 °F25.0 °F75 %30.17 in10.0 miSouth (180°)5.8 mphClear
5:53 AM30.9 °F25.0 °F79 %30.17 in10.0 miCalmClear
6:53 AM28.9 °F24.1 °F82 %30.19 in10.0 miCalmClear
7:53 AM32.0 °F25.0 °F75 %30.20 in10.0 miCalmClear
8:53 AM37.9 °F28.9 °F70 %30.21 in10.0 miCalmClear
9:53 AM46.9 °F30.0 °F52 %30.22 in10.0 miSouth (170°)10.4 mphClear
10:53 AM54.0 °F28.9 °F38 %30.22 in10.0 miSouth (180°)12.7 mphClear
11:53 AM61.0 °F21.0 °F21 %30.20 in10.0 miSouth (180°)15.0 mphClear
12:53 PM63.0 °F16.0 °F16 %30.17 in10.0 miSW (220°)16.1 mph25.3 mphClear
1:53 PM64.9 °F16.0 °F15 %30.14 in10.0 miSW (220°)20.7 mph25.3 mphClear
2:53 PM66.0 °F19.9 °F17 %30.14 in10.0 miWSW (240°)15.0 mphClear
3:53 PM66.0 °F19.0 °F17 %30.12 in10.0 miSW (220°)11.5 mphClear
4:53 PM66.0 °F19.9 °F17 %30.13 in10.0 miSW (220°)10.4 mphClear
5:53 PM62.1 °F23.0 °F22 %30.17 in10.0 miWSW (240°)5.8 mphClear
6:53 PM57.9 °F23.0 °F26 %30.20 in10.0 miWNW (300°)3.5 mphClear
7:53 PM54.0 °F28.0 °F37 %30.23 in10.0 miNorth (350°)6.9 mphClear
8:53 PM48.9 °F30.0 °F48 %30.29 in10.0 miNNE (20°)23.0 mph29.9 mphClear
9:53 PM44.1 °F28.0 °F53 %30.33 in10.0 miNorth (10°)17.3 mph23.0 mphClear
10:53 PM39.9 °F26.1 °F58 %30.36 in10.0 miNNE (20°)19.6 mph27.6 mphClear
11:53 PM37.0 °F25.0 °F62 %30.37 in10.0 miNNE (30°)12.7 mphClear
Hourly data recorded from KTKI, located miles away from Lincoln Rock, Alaska







STORIES FROM OUR PARTNERS